Preisvergleich
Suchen Sie bei den großen Preisvergleich Portalen gleichzeitig! 


Sitemap20

19.4.2024 2:01

In den Sitemaps finden Sie im Meta-Preisvergleich häufig gefragte Suchworte sortiert nach der Anzahl der Anfragen.

Anfragen Suchwort Ergebnisse Datum Quellen
28esam 3200.s852024-03-25 00:07:0121
28slyrs 0,7l2822024-03-22 00:07:0121
28miss dior eau de parfum 100ml722024-03-17 00:07:0121
28heuer schraubstock 120mm2452024-04-03 00:07:0120
28vossen cult de luxe7032024-03-22 00:07:0121
28lagerfeld classic 100ml1202024-03-13 00:07:0121
28swissinno supercat3572024-03-17 00:07:0121
28love hina4212024-03-28 00:07:0121
28nurofen schmelztabletten1112024-03-12 00:07:0121
28reisenthel carrybag iso1242024-04-12 00:07:0121
28kobold vc 100772024-03-14 00:07:0120
28ganzjahresreifen 215 60 r166442024-04-03 00:07:0121
28alpha lipon3422024-04-01 00:07:0121
28euro steckdosenleiste7412024-04-11 00:07:0143
28glucocheck xl teststreifen842024-03-14 00:07:0121
28banner 58001142024-04-03 00:07:0121
28melitta pro aqua wasserfilter2372024-04-12 00:07:0121
28oral-b trizone 600192024-03-14 00:07:0121
28microplane zester3182024-03-17 00:07:0121
28vuqube auto292024-04-12 00:07:0121
28nasenspray al 0,1962024-04-10 00:07:0121
28star trek enterprise blu ray2062024-04-04 00:07:0121
28boxershorts 4xl3912024-04-19 00:07:0121
28knx bewegungsmelder10672024-04-08 00:07:0121
28wmf palermo 60352024-03-23 00:07:0121
28earl grey tee5582024-03-21 00:07:0121
28samsung evo 840 1tb192024-03-13 00:07:0121
28f016800346122024-04-02 00:07:0121
2805056490001802024-04-05 00:07:0121
28delonghi ecam 21.117.b462024-03-14 00:07:0121
28palm meander352024-04-10 00:07:0121
28wolf-garten a 370 e522024-04-18 00:07:0121
28rock band schlagzeug2732024-04-08 00:07:0121
28fritzbox 6820212024-04-19 00:07:0121
28powerline 12402522024-03-24 00:07:0121
28bondhus winkelschlüssel1012024-04-08 00:07:0121
28flüssig zink4302024-03-23 00:07:0121
28ganzjahresreifen 165 70 r146032024-04-15 00:07:0121
28pe rohr 50mm4642024-04-18 00:07:0121
28die drei sonnen4672024-03-16 00:07:0121
28bosch smart home eyes1482024-03-24 00:07:0121
28gsr 12v-15 fc professional1742024-04-04 00:07:0142
28siemens iq700 ex875lyc1e342024-04-06 00:07:0121
28briefablage bambus3332024-04-14 00:07:0121
28dreamstation go182024-03-23 00:07:0121
28rennie fresh 48332024-04-13 00:07:0121
28metabo akku 18v10122024-04-07 00:07:0121
28wago 221-412 50 stück372024-03-19 00:07:0021
28microsd 1tb3212024-03-31 00:07:0121
28bosch gsa 12v-142152024-03-25 00:07:0121
28proscenic5222024-03-23 00:07:0121
28sauvage dior parfüm1292024-04-13 00:07:0121
28fhb hosenträger achim672024-03-29 00:07:0221
28roche serum5802024-03-19 00:07:0021
28tern gsd s00162024-03-28 00:07:0121
28avm 1200 repeater2612024-03-24 00:07:0121
28philips hue smart button822024-03-13 00:07:0121
28cube kathmandu hybrid one 625392024-04-16 00:07:0121
28garmin vivoactive 52772024-03-25 00:07:0121
28gsr 18v-110 c2242024-04-18 00:07:0121
28thule 933100 fahrradträger easyfold xt122024-03-20 00:07:0121
28bt7240372024-04-13 00:07:0121
28garmin varia rtl5151142024-04-09 00:07:0221
28philips lattego 5400592024-03-27 00:07:0121
28wpc terrassendielen massiv grau2802024-04-04 00:07:0121
28tl-wpa8631p kit822024-03-18 00:07:0120
28sony sa z9r92024-03-28 00:07:0121
28samsung rl38t775cs9 eg142024-04-13 00:07:0121
28haier hw80-bp14636n102024-03-19 00:07:0021
28oneplus 9 256gb912024-04-07 00:07:0121
28gx70501932024-03-29 00:07:0221
28sonos beam gen 21062024-03-18 00:07:0121
28iphone 13 pro max 512 gb1842024-04-19 00:09:4821
28sigma rox 11.1 evo2062024-03-22 00:07:0121
28lenovo l32p-30452024-04-17 00:07:0121
28lenovo tab p12 pro1332024-04-17 00:07:0121
28de longhi magnifica evo ecam 292.81.b492024-03-31 00:07:0121
28kfz tracker2532024-04-10 00:07:0121
28tab s85012024-03-27 00:07:0121
28dji mini 2 se3332024-04-18 00:07:0121
28insta 360 x33432024-04-14 00:07:0121
28soundcore liberty 42732024-04-15 00:07:0121
28xiaomi 12t3652024-03-18 00:07:0121
28vans mule1162024-03-27 00:07:0121
28yr-10352012024-03-25 00:07:0121
28ecovacs goat g1682024-04-11 00:07:0121
28dji mini 3 akku3712024-03-23 00:07:0121
28rtx407012612024-04-13 00:07:0121
28samsung galaxy watch 6 classic 47mm2862024-04-03 00:07:0121
28apple watch 9 45mm7672024-03-13 00:07:0121
28dji mini 3 pro goggles integra82024-04-12 00:07:0121
28jabra elite 8 active1232024-04-05 00:07:0121
28samsung galaxy z flip 5 256gb4052024-03-17 00:07:0120
28adobe photoshop elements 20243392024-04-10 00:07:0121
28bos le 300502024-04-09 00:07:0225
28urban classics cargohose5462024-04-06 00:07:0121
28asics laufshirt core2642024-04-10 00:07:0121
27kfz schilder3402024-04-12 00:07:0120
27toca5362024-03-31 00:07:0121
27lego 7890502024-04-13 00:07:0121
27adidas bademantel herren972024-03-28 00:07:0121
27induktionstöpfe1162024-03-11 00:07:0120
27adlerauge3142024-04-15 00:07:0121
27nyy-j 1x16392024-04-16 00:07:0121
27tajima g-saw1272024-04-08 00:07:0121
27regenhose motorrad6232024-03-28 00:07:0121
27forclaz2662024-03-19 00:07:0021
27schwalbe marathon plus 50-5591322024-03-28 00:07:0121
27nobite kleidung 200ml352024-04-19 00:07:0121
27esposa4342024-04-18 00:07:0121
27royal canin outdoor 10 kg772024-04-10 00:07:0121
27kette edelstahl15032024-03-11 00:07:0123
27jura auslaufventil1262024-03-11 00:07:0121
27fahrradsocken7142024-04-06 00:07:0121
27busch jaeger bewegungsmelder8662024-03-27 00:07:0121
27entlötlitze6032024-04-10 00:07:0120
27eucerin hyaluron filler tag2202024-03-22 00:07:0120
27edelstahlkugeln2592024-03-30 00:07:0121
27schmerzsalbe3862024-04-05 00:07:0121
27alpina weiß wandfarbe3652024-03-25 00:07:0121
27aquion92024-03-11 00:07:0119
27makita hr 2470 sds-plus-bohrhammer122024-04-15 00:07:0121
27sq 4502222024-04-15 00:07:0121
27wolf garten unkrautvernichter plus rasendünger372024-03-24 00:07:0121
27manhattan clearface92024-03-29 00:07:0221
27champion poloshirt4282024-04-10 00:07:0121
27kg rohr dn300712024-03-30 00:07:0121
27bitdefender mobile security792024-04-11 00:07:0121
27kamado joe5772024-04-16 00:07:0121
27fritz box 6810 lte82024-03-29 00:07:0221
27schnelles denken, langsames denken862024-04-07 00:07:0124
27wmf besteck 60-teilig2002024-03-14 00:07:0121
27varta silver dynamic e44 77ah422024-03-18 00:07:0121
27abus feuerlöschspray692024-03-25 00:07:0121
27sgrassatore universale2212024-04-18 00:07:0121
27kd-65892024-03-24 00:07:0121
27sp6000j1482024-03-28 00:07:0120
27taylor 214ce312024-03-20 00:07:0121
27joop go 200232024-04-12 00:07:0120
27secrid twinwallet2012024-03-25 00:07:0121
27dekasyl ms-5952024-04-03 00:07:0120
27ga5040cz1352024-03-28 00:07:0121
27schwarzer knoblauch5432024-04-07 00:07:0121
27rob fold2842024-04-11 00:07:0121
27momentum 25402024-03-16 00:07:0121
27keramik wc bürstenhalter4172024-03-17 00:07:0121
27stapelsessel aluminium silber3162024-03-18 00:07:0121
27endura t18962024-03-16 00:07:0121
27playbrush242024-04-11 00:07:0121
27lavera zahngel262024-03-21 00:07:0121
27tl-wr902ac1032024-03-29 00:07:0221
27brother hl-l8260cdw4412024-03-21 00:07:0121
27gc712d712024-03-29 00:07:0221
27homviotensin tropfen582024-04-18 00:07:0121
27gardena multibrause premium1982024-04-11 00:07:0121
27sc 57422024-03-30 00:07:0121
27rode videomic rycote2402024-03-25 00:07:0121
27gloria weedbrush1542024-03-22 00:07:0121
27wpa 8630302024-04-15 00:07:0121
27canton as 85.3 sc262024-03-23 00:07:0121
27abus smartvest set832024-03-29 00:07:0221
27ps vr22492024-03-20 00:07:0121
27bauknecht mw 3391 sx112024-03-16 00:07:0121
27deuter speed lite 16232024-04-05 00:07:0121
27enders kansas pro 3 sik turbo292024-04-04 00:07:0121
27stihl rma 443702024-03-17 00:07:0121
27philips hue dimmschalter8312024-03-15 00:07:0121
27xiaomi mi 8 global842024-03-31 00:07:0121
27dyson big ball multifloor 2522024-03-28 00:07:0121
27ricoh sp c262sfnw652024-03-29 00:07:0221
27eqiva model n712024-03-13 00:07:0121
27bacopa monnieri3842024-03-31 00:07:0121
27seagate ironwolf pro 4tb2882024-03-30 00:07:0121
27acuvue oasys 1-day5952024-03-31 00:07:0121
27kryptonite kryptolok 990242024-03-29 00:07:0221
27cube nuroad race fe282024-03-24 00:07:0121
27fritzfon c6 neu292024-04-03 00:07:0121
27samsung fit plus 256gb832024-03-14 00:07:0121
27nvidia quadro rtx 40001332024-04-17 00:07:0121
27canon g50502202024-03-27 00:07:0121
27hp 107w1722024-04-16 00:07:0121
27hjc i904412024-04-11 00:07:0121
27fritzbox 6850312024-04-19 00:07:0121
27dlm382pm2682024-03-13 00:07:0121
27meaco 1056412024-04-10 00:07:0121
27remko rkl 495 dc332024-04-04 00:07:0121
27gigaset cl390hx2142024-03-12 00:07:0120
27weidenröschen kleinblütig3582024-03-22 00:07:0123
27ketozolin 2 shampoo 120 ml252024-04-17 00:07:0121
27galaxy s 20 fe3572024-03-16 00:07:0121
27canon pixma tr1501722024-03-26 00:07:0121
27airpod max4532024-03-18 00:07:0121
27dyson tp09632024-04-02 00:07:0121
27wd60efzx312024-04-05 00:07:0121
27bose quiet comfort 451022024-03-14 00:07:0121
27jbl partybox 710432024-03-18 00:07:0121
27dcp-j1050dw922024-04-03 00:07:0120
27hoymiles hm-400422024-04-08 00:07:0121
27tab s8 ultra4012024-03-20 00:07:0121
27oled42c27la222024-03-12 00:07:0121
27insta360 link1172024-03-23 00:07:0121
27protocol10522024-03-25 00:07:0121
27buffalo 13393872024-03-27 00:07:0121
27apple watch 8 45mm cellular3012024-04-11 00:07:0121
27kg39naiat312024-03-24 00:07:0121
27forerunner 2651542024-03-19 00:07:0021
27samsung a 545282024-03-11 00:07:0121
27sodastream crystal 3.0852024-04-02 00:07:0124
27orbea urrun432024-04-16 00:07:0121
27schlaraffia mynap tfk1052024-03-18 00:07:0121
27dyson v15s detect submarine492024-04-02 00:07:0121
27google pixel 8 128 gb6422024-04-03 00:07:0121
27jack jones cargohose paul flake5342024-03-22 00:07:0121
27jack wolfskin shorts wanderthirst2782024-03-26 00:07:0121
27killtec softshellhose2602024-03-27 00:07:0121
27killtec bermudas5372024-03-27 00:07:0121
27nike laufshorts dri-fit5232024-03-28 00:07:0121
27puma t-shirt power5332024-04-18 00:07:0121
27puma t-shirt better5252024-04-19 00:07:0121
27puma laufshirt5282024-04-19 00:07:0121
26jogginganzug adidas7502024-03-24 00:07:0121
26kann vanity852024-03-15 00:07:0121
26hark opera b kaminofen1002024-03-30 00:07:0121
26fenster mit rolladen3562024-03-21 00:07:0149
26busch-jaeger 6418 u742024-04-05 00:07:0119
26orthonorm f172024-03-11 00:07:0121
26nike structure9302024-03-30 00:07:0121
26clockwise2692024-04-19 00:07:0121
26lego 8272542024-04-14 00:07:0121
26white13072024-03-20 00:07:0122
26grassamen 10kg2082024-03-21 00:07:0166
26kopierpapier a4 500 blatt7762024-04-19 00:07:0120
26first alert rauchmelder82024-03-15 00:07:0121
26fassadenreiniger3382024-04-02 00:07:0121
26gleitgelen1892024-03-25 00:07:0121
26schranke3652024-04-12 00:07:0120
26parat royal leifheit852024-04-06 00:07:0121
26kukident aktiv plus1372024-03-15 00:07:0121
26europa mini iwp172024-04-18 00:07:0121
26laser jolle122024-04-14 00:07:0121
26silicea d 125802024-04-04 00:07:0121
26hipshot3622024-03-23 00:07:0121
26terzolin creme352024-03-22 00:07:0121
26vox tonelab st162024-03-16 00:07:0121
26tamaris spangenpumps5012024-04-19 00:07:0121
26tauchsieder 12v2022024-04-16 00:07:0121
26amaro lucano492024-03-20 00:07:0121
26dermasence polaneth lotion882024-03-23 00:07:0121
26pro-ject cd box1402024-04-10 00:07:0121
26atari jaguar1872024-03-30 00:07:0121
26pci silikon zementgrau492024-03-20 00:07:0120
26tramontina machete542024-04-14 00:07:0121
26dennerle nano cube 30l302024-03-27 00:07:0121
26solar carport3842024-03-25 00:07:0121
26griebenschmalz392024-03-18 00:07:0121
26444722021142024-03-27 00:07:0121
26bosch ahs 55-1692024-03-30 00:07:0121
26noise cancelling kopfhörer11882024-04-17 00:07:0121
26bruder claas6872024-03-11 00:07:0121
26adidas samba 411922024-04-13 00:07:0121
26digitaler stromzähler geeicht1362024-04-07 00:07:0121
26oleo mac kettensäge762024-03-19 00:07:0021
26bautenschutzmatte 4mm362024-03-11 00:07:0121
26garmin nüvi 2445402024-03-11 00:07:0121
26bosch trimmerfaden1672024-04-10 00:07:0121
26teva tirra 41482024-04-19 00:07:0121
26co2 2kg3432024-03-28 00:07:0120
26e rollstuhl2142024-03-24 00:07:0120
26tablettenbox 7 tage6502024-04-12 00:07:0121
26springform 26 cm7692024-04-07 00:07:0121
26siegenia kippriegel822024-03-21 00:07:0121
26hori hori pflanzmesser402024-03-26 00:07:0121
26mountain equipment lightline jacket1512024-03-29 00:07:0221
26sony lcs-amb482024-03-12 00:07:0121
26lego marvel13102024-03-21 00:07:0120
26bosch glm 100882024-03-26 00:07:0121
26qiu ball292024-03-23 00:07:0121
2610236 lego1532024-03-11 00:07:0121
26asics gt 1000 gtx3792024-04-08 00:07:0121
26kangertech evod142024-03-22 00:07:0121
26dfb kinder trikot2722024-04-02 00:07:0121
26dermocapillaire2882024-04-18 00:07:0121
26295 50 r151332024-04-12 00:07:0121
26al-ko combi care 38 e462024-03-17 00:07:0121
26kretzer spirale982024-04-06 00:07:0121
26dometic combicool rc 1200 egp402024-03-26 00:07:0121
26ninetec2692024-04-05 00:07:0121
26scott spark 930542024-04-04 00:07:0121
26pastis 0,7762024-04-07 00:07:0121
26lcw-m1701732024-04-06 00:07:0121
26gfs 401 s152024-03-20 00:07:0120
26cartier baiser vole eau de parfum 100 ml202024-03-28 00:07:0121
26externe hdd 2tb usb 3.0 2,5 zoll822024-04-14 00:07:0121
2634 monitor10492024-04-13 00:07:0121
26node 804282024-03-17 00:07:0120
26napoleon prestige pro 825262024-03-13 00:07:0121
26makita kompressor4152024-03-19 00:07:0021
26canon mx925 druckkopf742024-03-11 00:07:0120
26nolan n21 visor5922024-03-31 00:07:0121
26sandisk 1tb7982024-03-31 00:07:0121
26prym hosenträger882024-03-11 00:07:0121
26goodyear 225 50 r174422024-04-07 00:07:0120
26akku bl1850b5682024-04-14 00:07:0121
26solarmodul halterung8942024-03-12 00:07:0121
26oakley radar ev path4072024-04-15 00:07:0121
26artemide tolomeo mini tavolo aluminium302024-03-18 00:07:0121
26bordo granit xplus 65001032024-03-29 00:07:0221
26hundehalsband led6312024-03-21 00:07:0121
26hdtb420ek3aa322024-04-10 00:07:0121
26gretsch 2420222024-03-27 00:07:0121
26predator helios 3003482024-04-19 00:07:0121
26badewannenabdeckung3412024-03-25 00:07:0121
26neff b56ct64n0412024-03-12 00:07:0121
26meross mss310432024-03-13 00:07:0121
26specialist12352024-03-11 00:07:0121
26osram night breaker silver h72332024-03-16 00:07:0121
26tp-link m72001042024-03-20 00:07:0121
26medion md 18387172024-03-27 00:07:0121
26hp usb-c dock g53132024-04-05 00:07:0121
26hue sync box1012024-03-11 00:07:0121
26samsung galaxy a20e neu602024-04-05 00:07:0121
26rx 5700xt2992024-04-10 00:07:0121
26wmf stelio milchaufschäumer742024-03-11 00:07:0121
26brother is f400352024-03-23 00:07:0121
26abus hyban 2.0 ace1702024-04-09 00:07:0221
26kluster spiel542024-03-24 00:07:0121
26zwilling v-edge1052024-04-02 00:07:0121
26rtx3060ti5112024-03-26 00:07:0121
26rösle magnum pro g4152024-04-17 00:07:0121
26lego 717381462024-03-22 00:07:0121
26debora plus k2 kapseln 120172024-04-16 00:07:0121
26epson et 51501702024-03-18 00:07:0121
26thrustmaster t2481582024-04-14 00:07:0121
26apple magsafe charger 15w1102024-04-11 00:07:0121
26rox 4.02182024-03-20 00:07:0121
26apple studio display 272092024-04-05 00:07:0121
26lego 421431972024-04-15 00:07:0121
26sachsenrad2462024-04-15 00:07:0121
26nothing phone6082024-03-18 00:07:0121
26bambus brotkasten7172024-03-25 00:07:0121
26miele triflex hx2 pro292024-03-26 00:07:0120
26lg gbp62pznbc182024-03-17 00:07:0120
26minnesota8632024-04-08 00:07:0121
26garmin 10402762024-03-20 00:07:0121
26huawei watch fit 2 active3222024-04-12 00:07:0121
anzahl 345 xml 345


Preisvergleich
Wichtige Information zu den Preisangaben: Alle Preise verstehen sich inklusive der gesetzlichen Mehrwertsteuer und gegebebenfalls zuzüglich Versandkosten. Zum Zeitpunkt des Kaufes ist der aktuell auf der Händlerseite angegebene Preis maßgeblich. Bitte beachten Sie, dass aus technischen Gründen zeitweise Abweichungen, des Preises, der Lieferbarkeit und der Versandkosten entstehen können.

Affiliate-Offenlegung: Wenn Sie auf dieser Website auf Links zu verschiedenen Händlern klicken und einen Kauf tätigen, kann dies dazu führen, dass diese Website eine Provision erhält. Zu den Partnerprogrammen und Partnerschaften gehört unter anderem das eBay Partner Network. Als Amazon-Partner verdienen wir an qualifizierten Verkäufen.
Impressum / Datenschutzerklärung     Presse     Shops    
Copyright © 2003-2024 MetaMind GmbH